Location: Ottawa
(45.4167°N, 75.7000°W)
Time: 03:57:16
(UTC-04:00)

Tiangong 2 - Pass Details

Date: 12 October 2017
Orbit: 388 x 392 km, 42.8° (Epoch: 16 October)

Event Time Altitude Azimuth Distance (km) Brightness Sun altitude
Exits shadow 05:16:11 31° 144° (SE) 713 2.6 -21.6°
Drops below altitude 10° 05:18:39 10° 97° (E) 1,423 5.0 -21.2°
Sets 05:20:51 0° 88° (E) 2,281 6.5 -20.8°
